Ana Sayfa
METAR-TAF:

METAR-TAF

Havaalanları :

Lake Argyle, Avustralya

Enlem: 16-38-13S, Boylam: 128-27-05E, yükseklik: 159 m

Güncel hava durumu gözlemi

Rapor saat 17:00 UTC de 29 dakika önce yapıldı.
Rüzgar kuzey/kuzeybatıdan 3 kt
Sıcaklık 31°C
Nem 31%
Basınç 1008 hPa
Görüş mesafesi 10 km veya daha fazla

METAR: YARG 181700Z AUTO 33003KT 9999 // NCD 31/12 Q1008

Saat: 01:29 (17:29 UTC)


TAF: eksik

4.000'den fazla havaalanı için hava durumu gözlemleri ve tahminleri (METAR ve TAF raporları).

Kullanılabilir istasyonlar harita üzerinde sarı ve kırmızı noktalarla gösterilir.

İstasyonun adını görmek için fareyi noktanın üzerinde gezdirin.

Sonrasında hava gözlem ve tahminlerini görmek için tıklayın.

Haritayı değiştirmek için: yaklaştırmak için siyah artı işaretli yeşil düğmeye ve uzaklaştırmak için de eksi işaretli düğmeye hızla tıklayın; bitişik haritalar için yeşil okları kullanın.


METAR-TAF: